Regional Weather Roundup
Issued by NWS Sioux Falls, SD

Home | Current Version | Previous Version | Graphics & Text | Print | Product List | Glossary Off
Versions: 1 2 3 4 5 6 7 8 9 10 11 12 13 14 15 16 17 18 19 20 21 22 23 24 25 26 27 28 29 30 31 32 33 34 35 36 37 38 39 40 41 42 43 44 45 46 47 48 49 50

000
ASUS43 KFSD 012202
RWRFSD

WEATHER ROUNDUP FOR SE SOUTH DAKOTA/SW MINNESOTA/NW IOWA
NATIONAL WEATHER SERVICE SIOUX FALLS SD
500 PM CDT MON SEP 01 2014

NOTE: "FAIR" INDICATES FEW OR NO CLOUDS BELOW 12,000 FEET WITH NO
SIGNIFICANT WEATHER AND OR OBSTRUCTIONS TO VISIBILITY.


SDZ038>040-050-052>070-012300-
SOUTHEAST SOUTH DAKOTA

CITY           SKY/WX    TMP DP  RH WIND       PRES   REMARKS
CHAMBERLAIN    PTSUNNY   76  51  41 N14G24    29.84R
HURON          PTSUNNY   73  52  47 SW8       29.80R
MADISON        FAIR      73  55  53 W9        29.83F
MITCHELL       MOSUNNY   78  53  41 W5        29.82F
SIOUX FALLS    MOSUNNY   76  55  48 NW8       29.83F
WINNER         FAIR      78  46  32 CALM      29.84S
YANKTON        SUNNY     77  54  44 N7        29.83F
$$

MNZ071-072-080-081-089-090-097-098-012300-
SOUTHWEST MINNESOTA

CITY           SKY/WX    TMP DP  RH WIND       PRES   REMARKS
FAIRMONT       PTSUNNY   64  55  72 SW7       29.83S
JACKSON        MOSUNNY   72  54  53 CALM      29.84F
LUVERNE        MOSUNNY   77  55  47 NW8       29.83F
MARSHALL       MOSUNNY   77  52  41 NW12G18   29.78F
MONTEVIDEO     SUNNY     81  57  44 W3        29.78S
PIPESTONE      SUNNY     75  54  46 NW8       29.83F
REDWOOD FALLS  SUNNY     78  55  44 NW9       29.78F
TRACY          MOSUNNY   78  57  48 CALM      29.81S
WINDOM         MOSUNNY   75  57  53 NW3       29.82S
WORTHINGTON    SUNNY     75  57  53 NW14      29.84F
$$

IAZ001>003-012>014-020>022-031-032-NEZ013-014-SDZ071-012300-
NORTHWEST IOWA

CITY           SKY/WX    TMP DP  RH WIND       PRES   REMARKS
CHEROKEE       MOSUNNY   76  63  62 W8        29.84S
DENISON        MOSUNNY   77  63  61 W7        29.85S
ESTHERVILLE    PTSUNNY   71  58  63 N10       29.83R
LE MARS        MOSUNNY   79  63  57 W10       29.84F
ORANGE CITY    MOSUNNY   79  61  53 NW8       29.84F
SHELDON        SUNNY     75  59  57 W10       29.83S
SIOUX CITY     MOSUNNY   79  60  52 VRB5      29.84S
SPENCER        MOSUNNY   78  60  53 W10       29.83S
STORM LAKE     SUNNY     75  70  83 W9G15     29.85S
$$

ABBREVIATIONS USED IN REMARKS
   TC - TEMPERATURE IN CELSIUS
  WCI - WIND CHILL INDEX
   HX - HEAT INDEX
  VSB - VISIBILITY




USA.gov is the U.S. government's official web portal to all federal, state and local government web resources and services.